South Lake Tahoe, CA

6:18 PM PDT on June 18, 2018 (GMT -0700)
Lake Tahoe

Weather History for KTVL - June, 2018

Change the Weather History Date:

Wednesday, June 13, 2018

  Actual Average Record
Temperature  
Mean Temperature 60 °F 54 °F  
Max Temperature 80 °F 71 °F 85 °F (2015)
Min Temperature 40 °F 37 °F 24 °F (1992)
Degree Days  
Heating Degree Days 5 11  
Month to date heating degree days 136 160  
Since 1 June heating degree days 136 160  
Since 1 July heating degree days 6978 7582  
Cooling Degree Days 0 0  
Month to date cooling degree days 0 0  
Year to date cooling degree days 0 0  
Since 1 June cooling degree days 0 0  
Growing Degree Days 10 (Base 50)    
Moisture  
Dew Point 41 °F    
Average Humidity 58    
Maximum Humidity 92    
Minimum Humidity 23    
Precipitation  
Precipitation 0.00 in - 0.92 in (1934)
Month to date precipitation T  
Year to date precipitation 12.62  
Sea Level Pressure  
Sea Level Pressure 29.92 in    
Wind  
Wind Speed 5 mph (South)    
Max Wind Speed 18 mph    
Max Gust Speed 29 mph    
Visibility 10 miles    
Events      
T = Trace of Precipitation, MM = Missing Value Source: NWS Daily Summary

Daily Weather History Graph

Daily Weather History Graph

Search for Another Location

Airport or City:

Astronomy

Jun. 13, 2018 Rise Set
Actual Time 5:34 AM PDT 8:26 PM PDT
Civil Twilight 5:02 AM PDT 8:58 PM PDT
Nautical Twilight 4:21 AM PDT 9:38 PM PDT
Astronomical Twilight 3:35 AM PDT 10:24 PM PDT
Moon 5:39 AM PDT (6/13) 8:27 PM PDT (6/13)
Length of Visible Light 15h 56m
Length of Day
14h 52m
Waning Crescent, 0% of the Moon is Illuminated
Jun 13
Waning Crescent
Jun 13
New
Jun 20
First Quarter
Jun 27
Full
Jul 6
Last Quarter

Hourly Weather History & Observations

Time (PDT) Temp. Windchill Dew Point Humidity Pressure Visibility Wind Dir Wind Speed Gust Speed Precip Events Conditions
12:53 AM 48.0 °F - 43.0 °F 83% 29.98 in 10.0 mi Calm Calm - N/A   Clear
1:53 AM 46.0 °F 44.8 °F 42.1 °F 86% 29.97 in 10.0 mi South 3.5 mph - N/A   Clear
2:53 AM 45.0 °F - 39.9 °F 82% 29.96 in 10.0 mi Calm Calm - N/A   Clear
3:53 AM 42.1 °F 39.2 °F 39.0 °F 89% 29.96 in 10.0 mi South 4.6 mph - N/A   Clear
4:53 AM 42.1 °F - 37.9 °F 85% 29.96 in 10.0 mi Calm Calm - N/A   Clear
5:53 AM 39.9 °F - 37.0 °F 89% 29.95 in 10.0 mi Calm Calm - N/A   Clear
6:53 AM 44.1 °F - 39.0 °F 82% 29.95 in 10.0 mi Calm Calm - N/A   Clear
7:53 AM 53.1 °F - 41.0 °F 64% 29.95 in 10.0 mi Calm Calm - N/A   Clear
8:53 AM 63.0 °F - 43.0 °F 48% 29.94 in 10.0 mi ENE 3.5 mph - N/A   Clear
9:53 AM 69.1 °F - 45.0 °F 42% 29.93 in 10.0 mi NE 4.6 mph - N/A   Clear
10:53 AM 71.1 °F - 43.0 °F 36% 29.92 in 10.0 mi NNE 8.1 mph - N/A   Clear
11:53 AM 75.0 °F - 43.0 °F 32% 29.92 in 10.0 mi NNE 8.1 mph - N/A   Clear
12:53 PM 79.0 °F - 39.0 °F 24% 29.91 in 10.0 mi South 11.5 mph 19.6 mph N/A   Clear
1:53 PM 80.1 °F - 39.0 °F 23% 29.91 in 10.0 mi Variable 6.9 mph 28.8 mph N/A   Clear
2:53 PM 80.1 °F - 39.0 °F 23% 29.89 in 10.0 mi SW 8.1 mph 17.3 mph N/A   Clear
3:53 PM 79.0 °F - 39.0 °F 24% 29.90 in 10.0 mi SSW 12.7 mph 20.7 mph N/A   Clear
4:53 PM 75.9 °F - 43.0 °F 31% 29.91 in 10.0 mi SSW 8.1 mph 18.4 mph N/A   Clear
5:53 PM 73.9 °F - 44.1 °F 34% 29.91 in 10.0 mi SSW 11.5 mph 19.6 mph N/A   Clear
6:53 PM 72.0 °F - 43.0 °F 35% 29.91 in 10.0 mi SSW 8.1 mph - N/A   Clear
7:53 PM 68.0 °F - 44.1 °F 42% 29.90 in 10.0 mi SSW 5.8 mph - N/A   Clear
8:53 PM 64.0 °F - 43.0 °F 46% 29.88 in 10.0 mi Variable 5.8 mph - N/A   Clear
9:53 PM 61.0 °F - 43.0 °F 52% 29.88 in 10.0 mi Variable 5.8 mph - N/A   Clear
10:53 PM 55.9 °F - 42.1 °F 60% 29.88 in 10.0 mi Calm Calm - N/A   Clear
11:53 PM 57.0 °F - 41.0 °F 55% 29.87 in 10.0 mi South 4.6 mph - N/A   Clear